SCP
0 0 -0 3 4 5 6 4 4 2 0 0 0 0 0 0 0 0 0 0 0 0 0 0 0 0 0 0 0 0 0 0
0 0 1 4 4 5 5 4 3 0 0 0 0 0 0 0 0 0 0 0 0 0 0 0 0 0 0 0 0 0 0 0
0 3 3 3 3 2 3 4 1 0 0 0 0 0 0 0 0 -0 0 0 0 0 0 0 0 0 0 0 0 0 0 0
0 2 2 1 0 0 0 0 0 0 0 0 0 0 0 0 -0 -0 -0 0 0 0 0 0 0 0 0 0 0 0 0 0
1 1 1 0 0 0 0 0 0 0 0 0 0 0 -0 -0 -0 -0 -0 -0 0 0 0 0 0 0 0 0 0 0 0 0
0 1 0 0 0 0 0 0 0 0 0 0 0 -0 -0 -0 -0 -0 -0 0 0 0 0 0 0 0 0 0 0 0 0 0
0 0 0 0 0 0 0 0 0 0 0 0 0 0 0 -0 -0 -0 -0 0 0 0 0 0 0 0 0 0 0 0 0 0
0 0 0 0 0 0 0 0 0 0 0 0 -0 0 0 -0 -0 -0 -0 0 0 0 0 0 0 0 0 0 0 0 0 0
0 0 0 0 0 -0 0 0 0 0 0 0 0 0 0 -0 -0 -0 -0 0 0 0 0 0 0 0 0 0 0 0 0 0
0 0 0 0 0 -0 -0 0 0 -0 -0 -0 -0 -0 -0 -0 -0 -0 -0 0 0 0 0 0 0 0 0 0 0 0 0 0
0 0 0 0 0 0 0 0 -0 -0 -0 -0 -0 -0 -0 -0 -0 -0 0 0 0 0 0 0 0 0 0 0 0 0 0 0
0 0 0 0 0 0 0 0 0 -0 -0 -0 -0 -0 -0 -0 -0 -0 0 0 0 0 0 0 0 0 0 0 0 0 0 0
0 0 0 0 0 0 0 -0 -0 -0 -0 -0 -0 -0 -0 -0 -0 0 0 0 0 0 0 0 0 0 0 0 0 0 0 0
0 0 0 0 0 0 0 0 -0 -0 -0 -0 -0 -0 -0 -0 -0 -0 -0 -0 -0 -0 0 0 0 0 0 0 0 0 0 0
0 0 0 0 0 0 0 0 -0 -0 -0 -0 -0 -0 -0 -0 -0 -0 -0 -0 -0 0 0 0 0 0 0 0 0 0 0 0
0 0 0 0 0 0 0 0 -0 -0 -0 -0 -0 -0 -0 -0 -0 -0 0 -0 0 0 0 0 0 0 0 0 0 0 0 0
0 0 0 0 0 0 0 0 -0 -0 -0 -0 -0 -0 0 0 0 0 -0 0 0 0 0 -0 0 0 0 0 0 0 0 0
0 0 0 0 0 0 0 0 -0 -0 -0 -0 -0 -0 -0 -0 -0 -0 0 0 0 0 0 0 0 0 0 0 0 0 0 0
0 0 0 0 0 0 0 -0 -0 0 -0 -0 -0 -0 -0 -0 -0 -0 0 0 0 0 0 0 0 0 0 0 0 0 0 0
0 0 0 0 0 0 0 0 0 0 0 0 -0 -0 -0 -0 -0 -0 -0 -0 0 0 0 0 0 0 0 0 0 0 0 -0
Wind_Speed_500mb
59 120 74 93 111 107 100 88 97 100 112 110 100 96 89 73 63 64 65 57 49 40 34 29 26 27 27 26 22 21 28 30
48 95 76 104 93 94 90 90 105 113 113 110 106 93 81 76 76 74 63 56 48 40 34 31 30 29 29 28 31 30 29 22
44 82 82 81 82 72 76 92 109 129 121 118 103 87 84 86 82 73 61 50 45 37 37 38 34 30 29 26 26 24 23 27
30 98 93 74 70 68 76 76 84 108 119 110 100 98 94 90 75 65 59 52 47 45 43 40 35 34 30 26 26 28 26 28
35 92 104 91 84 89 81 98 81 106 99 106 103 100 89 78 72 63 57 56 53 48 45 38 36 36 33 29 22 23 23 26
59 90 108 108 105 87 78 80 77 54 79 92 92 93 83 74 69 63 61 61 55 49 44 36 31 35 26 20 17 19 17 24
78 91 99 102 93 95 104 76 93 81 83 85 83 78 82 81 74 67 62 59 55 50 44 38 32 35 25 20 19 18 17 27
100 113 120 127 131 102 109 107 104 95 89 85 77 81 82 77 67 66 64 59 56 47 42 36 33 30 26 25 25 21 20 28
105 116 117 119 132 122 111 98 91 90 89 86 83 79 77 73 72 69 63 58 50 42 38 35 32 31 31 31 33 29 31 35
112 113 113 108 115 124 110 103 101 98 94 91 87 81 75 73 74 66 57 50 45 42 36 38 39 40 38 39 37 36 35 36
109 112 113 106 112 119 121 110 106 104 100 95 91 88 86 82 78 73 66 48 39 35 37 45 47 44 43 41 37 37 33 32
112 111 110 109 113 111 112 106 103 105 103 97 92 88 80 71 65 60 60 39 32 38 42 47 47 46 45 40 37 35 33 34
100 106 109 109 110 106 104 105 103 101 95 90 86 81 76 73 65 51 43 36 27 39 46 46 43 47 48 41 38 37 35 35
100 98 100 99 95 92 90 88 87 92 93 86 80 76 70 63 59 64 56 51 49 50 47 43 49 49 43 39 35 35 36 34
98 97 94 88 83 82 81 81 80 81 83 77 74 70 66 64 63 64 73 69 61 58 56 48 41 37 32 31 33 34 42 40
89 88 86 80 80 79 74 73 77 81 83 80 79 76 73 71 70 69 66 63 62 61 57 51 48 41 37 36 36 32 47 53
82 83 74 73 77 81 79 78 81 84 83 80 76 71 67 64 61 59 56 55 54 53 50 46 40 38 42 41 42 45 45 48
84 81 80 83 87 83 78 78 78 75 71 70 73 72 67 59 53 51 48 45 45 48 45 36 29 30 40 44 45 44 45 44
75 78 83 71 72 68 70 68 75 72 67 63 62 58 53 50 49 50 50 53 50 46 40 32 29 36 41 42 39 43 43 45
79 72 68 69 73 71 61 68 74 75 72 69 61 55 56 58 57 54 53 51 47 43 36 30 33 39 39 40 42 42 41 45
Wind_Direction_500mb
255 218 210 200 198 198 192 189 179 172 174 177 173 175 166 159 157 152 152 149 146 148 147 131 110 96 91 85 72 62 65 58
262 204 198 198 195 188 184 180 176 170 169 170 167 161 157 154 151 146 144 147 151 148 133 118 108 100 93 70 68 64 70 54
189 170 174 178 179 182 178 173 163 161 161 162 153 150 151 147 145 144 145 146 145 137 129 121 110 105 89 84 82 74 57 54
140 144 151 141 145 149 159 135 141 133 137 143 146 147 144 142 139 143 147 142 129 125 117 108 108 99 94 87 76 58 42 35
136 116 128 130 138 137 132 135 134 134 131 143 142 141 138 138 144 145 136 127 126 120 111 107 101 97 95 86 74 53 37 26
127 125 124 125 126 119 117 117 115 130 138 134 137 142 137 142 144 140 130 127 122 114 107 102 104 100 88 71 62 51 48 24
129 137 132 140 138 135 141 144 155 161 146 141 142 140 142 146 142 135 127 121 117 110 103 102 99 91 80 67 58 58 49 20
122 125 129 131 137 136 157 145 144 135 140 142 141 146 144 140 133 122 119 115 109 108 104 96 87 82 72 57 50 47 41 36
120 120 122 125 140 147 132 128 127 133 141 141 143 140 135 131 123 117 114 110 108 103 96 86 80 71 63 55 52 48 51 46
116 115 118 122 126 128 125 127 134 142 142 138 137 134 124 113 108 106 106 106 102 89 83 83 76 70 64 62 61 60 64 48
115 115 118 120 125 133 133 134 141 140 136 134 132 124 117 114 112 106 104 109 107 97 90 84 78 75 73 72 73 69 64 50
115 115 114 117 126 130 130 136 138 139 135 131 127 125 123 121 120 125 131 127 104 91 91 87 85 80 76 73 69 61 56 48
113 116 117 120 127 126 137 140 141 134 130 128 128 128 129 130 127 127 127 113 99 96 91 88 82 74 68 65 60 56 49 48
115 116 121 121 128 134 134 138 137 132 129 130 131 131 131 129 123 115 106 102 96 90 88 81 80 76 70 63 60 57 53 45
121 123 125 132 132 130 136 136 133 129 126 127 128 126 123 119 115 109 104 95 91 87 81 81 82 83 74 57 57 56 52 46
131 132 130 130 131 128 133 134 130 125 122 121 118 115 112 107 101 98 97 96 91 83 74 67 65 70 69 64 61 60 53 45
125 122 125 124 121 121 125 123 119 117 115 111 110 107 105 103 102 102 99 97 93 90 89 77 58 54 62 60 58 59 58 50
122 122 121 120 118 118 118 119 119 116 114 114 116 118 121 120 117 115 111 105 100 99 92 78 65 65 61 59 57 56 56 51
120 124 125 127 129 131 131 127 122 121 123 122 121 119 116 114 112 109 108 110 108 99 87 75 69 67 66 62 58 53 50 50
126 126 129 130 132 133 130 128 124 121 123 123 121 114 109 104 100 99 97 94 92 92 92 90 76 71 66 60 56 51 46 48
Wind_Speed_850mb
59 120 74 93 111 107 100 88 97 100 112 110 100 96 89 73 63 64 65 57 49 40 34 29 26 27 27 26 22 21 28 30
48 95 76 104 93 94 90 90 105 113 113 110 106 93 81 76 76 74 63 56 48 40 34 31 30 29 29 28 31 30 29 22
44 82 82 81 82 72 76 92 109 129 121 118 103 87 84 86 82 73 61 50 45 37 37 38 34 30 29 26 26 24 23 27
30 98 93 74 70 68 76 76 84 108 119 110 100 98 94 90 75 65 59 52 47 45 43 40 35 34 30 26 26 28 26 28
35 92 104 91 84 89 81 98 81 106 99 106 103 100 89 78 72 63 57 56 53 48 45 38 36 36 33 29 22 23 23 26
59 90 108 108 105 87 78 80 77 54 79 92 92 93 83 74 69 63 61 61 55 49 44 36 31 35 26 20 17 19 17 24
78 91 99 102 93 95 104 76 93 81 83 85 83 78 82 81 74 67 62 59 55 50 44 38 32 35 25 20 19 18 17 27
100 113 120 127 131 102 109 107 104 95 89 85 77 81 82 77 67 66 64 59 56 47 42 36 33 30 26 25 25 21 20 28
105 116 117 119 132 122 111 98 91 90 89 86 83 79 77 73 72 69 63 58 50 42 38 35 32 31 31 31 33 29 31 35
112 113 113 108 115 124 110 103 101 98 94 91 87 81 75 73 74 66 57 50 45 42 36 38 39 40 38 39 37 36 35 36
109 112 113 106 112 119 121 110 106 104 100 95 91 88 86 82 78 73 66 48 39 35 37 45 47 44 43 41 37 37 33 32
112 111 110 109 113 111 112 106 103 105 103 97 92 88 80 71 65 60 60 39 32 38 42 47 47 46 45 40 37 35 33 34
100 106 109 109 110 106 104 105 103 101 95 90 86 81 76 73 65 51 43 36 27 39 46 46 43 47 48 41 38 37 35 35
100 98 100 99 95 92 90 88 87 92 93 86 80 76 70 63 59 64 56 51 49 50 47 43 49 49 43 39 35 35 36 34
98 97 94 88 83 82 81 81 80 81 83 77 74 70 66 64 63 64 73 69 61 58 56 48 41 37 32 31 33 34 42 40
89 88 86 80 80 79 74 73 77 81 83 80 79 76 73 71 70 69 66 63 62 61 57 51 48 41 37 36 36 32 47 53
82 83 74 73 77 81 79 78 81 84 83 80 76 71 67 64 61 59 56 55 54 53 50 46 40 38 42 41 42 45 45 48
84 81 80 83 87 83 78 78 78 75 71 70 73 72 67 59 53 51 48 45 45 48 45 36 29 30 40 44 45 44 45 44
75 78 83 71 72 68 70 68 75 72 67 63 62 58 53 50 49 50 50 53 50 46 40 32 29 36 41 42 39 43 43 45
79 72 68 69 73 71 61 68 74 75 72 69 61 55 56 58 57 54 53 51 47 43 36 30 33 39 39 40 42 42 41 45
Wind_Direction_850mb
255 218 210 200 198 198 192 189 179 172 174 177 173 175 166 159 157 152 152 149 146 148 147 131 110 96 91 85 72 62 65 58
262 204 198 198 195 188 184 180 176 170 169 170 167 161 157 154 151 146 144 147 151 148 133 118 108 100 93 70 68 64 70 54
189 170 174 178 179 182 178 173 163 161 161 162 153 150 151 147 145 144 145 146 145 137 129 121 110 105 89 84 82 74 57 54
140 144 151 141 145 149 159 135 141 133 137 143 146 147 144 142 139 143 147 142 129 125 117 108 108 99 94 87 76 58 42 35
136 116 128 130 138 137 132 135 134 134 131 143 142 141 138 138 144 145 136 127 126 120 111 107 101 97 95 86 74 53 37 26
127 125 124 125 126 119 117 117 115 130 138 134 137 142 137 142 144 140 130 127 122 114 107 102 104 100 88 71 62 51 48 24
129 137 132 140 138 135 141 144 155 161 146 141 142 140 142 146 142 135 127 121 117 110 103 102 99 91 80 67 58 58 49 20
122 125 129 131 137 136 157 145 144 135 140 142 141 146 144 140 133 122 119 115 109 108 104 96 87 82 72 57 50 47 41 36
120 120 122 125 140 147 132 128 127 133 141 141 143 140 135 131 123 117 114 110 108 103 96 86 80 71 63 55 52 48 51 46
116 115 118 122 126 128 125 127 134 142 142 138 137 134 124 113 108 106 106 106 102 89 83 83 76 70 64 62 61 60 64 48
115 115 118 120 125 133 133 134 141 140 136 134 132 124 117 114 112 106 104 109 107 97 90 84 78 75 73 72 73 69 64 50
115 115 114 117 126 130 130 136 138 139 135 131 127 125 123 121 120 125 131 127 104 91 91 87 85 80 76 73 69 61 56 48
113 116 117 120 127 126 137 140 141 134 130 128 128 128 129 130 127 127 127 113 99 96 91 88 82 74 68 65 60 56 49 48
115 116 121 121 128 134 134 138 137 132 129 130 131 131 131 129 123 115 106 102 96 90 88 81 80 76 70 63 60 57 53 45
121 123 125 132 132 130 136 136 133 129 126 127 128 126 123 119 115 109 104 95 91 87 81 81 82 83 74 57 57 56 52 46
131 132 130 130 131 128 133 134 130 125 122 121 118 115 112 107 101 98 97 96 91 83 74 67 65 70 69 64 61 60 53 45
125 122 125 124 121 121 125 123 119 117 115 111 110 107 105 103 102 102 99 97 93 90 89 77 58 54 62 60 58 59 58 50
122 122 121 120 118 118 118 119 119 116 114 114 116 118 121 120 117 115 111 105 100 99 92 78 65 65 61 59 57 56 56 51
120 124 125 127 129 131 131 127 122 121 123 122 121 119 116 114 112 109 108 110 108 99 87 75 69 67 66 62 58 53 50 50
126 126 129 130 132 133 130 128 124 121 123 123 121 114 109 104 100 99 97 94 92 92 92 90 76 71 66 60 56 51 46 48